Regional Weather Roundup
Issued by NWS State College, PA

Home | Current Version | Previous Version | Graphics & Text | Print | Product List | Glossary On
Versions: 1 2 3 4 5 6 7 8 9 10 11 12 13 14 15 16 17 18 19 20 21 22 23 24 25 26 27 28 29 30 31 32 33 34 35 36 37 38 39 40 41 42 43 44 45 46 47 48 49 50
000
ASUS41 KCTP 102303
RWRCTP

REGIONAL WEATHER ROUNDUP
NATIONAL WEATHER SERVICE STATE COLLEGE PA
600 PM EST WED FEB 10 2016

Note: "fair" indicates few or no clouds below 12,000 feet with no
significant weather and/or obstructions to visibility.

* = STATION THAT DOES NOT REPORT PRECIPITATION /E.G. RAIN...SNOW...ETC/
    THUNDER OR FOG.

PAZ002>004-007>009-013>016-020>023-029>032-110000-
WESTERN PENNSYLVANIA

CITY           SKY/WX    TMP DP  RH WIND       PRES   REMARKS
ERIE           CLOUDY    20   9  62 W18G28    29.85R HAZE    WCI   5
MEADVILLE      LGT SNOW  16  10  77 NW9       29.80R WCI   4
FRANKLIN*      CLOUDY    18  10  73 NW8       29.80R WCI   7
NEW CASTLE     LGT SNOW  18  16  93 W12       29.85R VSB 3/4 WCI   5
BEAVER COUNTY  LGT SNOW  19  16  86 W10G18    29.83R WCI   8
BUTLER*        CLOUDY    19  14  79 W8        29.87R VSB 1   WCI   9
PITTSBURGH INT LGT SNOW  20  13  74 SW14      29.84R WCI   7
PITTSBURGH     CLOUDY    20  12  71 W14       29.84R WCI   7
INDIANA*       CLOUDY    18  16  93 W12G17    29.83S FOG     WCI   5
LATROBE        LGT SNOW N/A N/A N/A SW14      29.86R
WASHINGTON CO* MOCLDY    18  10  73 SW13      29.87R WCI   4
$$

PAZ004>006-010>012-017>019-024>028-033>037-041-042-045-046-049>053-110000-
CENTRAL PENNSYLVANIA

CITY           SKY/WX    TMP DP  RH WIND       PRES   REMARKS
BRADFORD       LGT SNOW  16   8  71 NW12G23   29.69R WCI   3
DUBOIS         LGT SNOW  17  13  84 SW14      29.72R VSB 3/4 WCI   3
CLEARFIELD     LGT SNOW  19  12  74 SW8       29.76R WCI   9
JOHNSTOWN      LGT SNOW  14   7  73 W13       29.73R WCI   0
ALTOONA        CLOUDY    19   9  65 W13       29.79R WCI   6
STATE COLLEGE  CLOUDY    21  10  63 SW10G18   29.78R WCI  10
WILLIAMSPORT   CLOUDY    27  14  58 W16G24    29.76R WCI  15
SELINSGROVE    CLOUDY    27  12  53 VRB5      29.80R
FT INDIANTOWN  MOCLDY    28  12  52 W8G20     29.78R
CAPITAL CITY   CLOUDY    30  11  45 W9        29.81R
HARRISBURG     CLOUDY    30  14  51 NW14      29.80R
YORK           CLOUDY    28  13  53 W9        29.81R
$$

PAZ038>040-043-044-047-048-054-055-060>062-067>071-110000-
EASTERN PENNSYLVANIA

CITY           SKY/WX    TMP DP  RH WIND       PRES   REMARKS
SCRANTON       CLOUDY    28  18  66 SW16      29.68R
MOUNT POCONO   CLEAR     23  14  68 W14       29.61R WCI  11
ALLENTOWN      CLOUDY    31  16  54 W10       29.74R
QUAKERTOWN*    NOT AVBL
READING        CLOUDY    30  14  51 W13G22    29.77R
LANCASTER      CLOUDY    28  14  55 W16       29.78R
COATESVILLE    CLOUDY    28  18  64 W10       29.78R
POTTSTOWN      CLOUDY    30  16  56 W7G17     29.78R
BLUE BELL        N/A     30  18  59 W6        29.76R
DOYLESTOWN     CLOUDY    29  14  53 W8G18     29.74R
WILLOW GROVE   NOT AVBL
NORTH PHILA    CLOUDY    33  19  56 W12       29.79R
PHILADELPHIA   MOCLDY    33  14  45 W14       29.80R
$$




USA.gov is the U.S. government's official web portal to all federal, state and local government web resources and services.